Theta_e
325 323 320 315 316 317 317 318 301 309 306 298 300 302 302 314 313 311 311 314 311 317 319 319 316 316 313 313 314 315 314 312 313 306 304 320 333 334 337 338 338 338 337 338 339 340 340 340 341 340 340 340 339 338 337 336 336 335 334 334 333 332 332 332 331 332 332 332 332 331 331 330 330 329 329 328 328 328 328 328 328 328 327 328 327 327 325 325 324 324 324 324 324 324 324 324 322
321 322 317 316 317 319 315 315 305 303 301 298 300 304 304 312 312 309 310 314 316 318 319 319 320 321 321 320 320 319 316 316 318 315 322 331 334 335 337 338 338 336 337 338 338 338 338 338 340 339 339 339 338 337 337 336 334 333 333 332 332 331 331 331 331 330 331 331 331 331 331 330 329 328 328 328 327 327 327 327 327 326 326 326 326 325 324 324 323 323 322 323 323 322 323 322 321
321 322 315 320 319 322 313 314 299 298 296 293 298 303 309 310 308 311 316 315 317 319 320 319 318 317 317 318 316 315 306 322 322 323 323 331 327 330 337 339 339 338 338 338 338 338 337 338 339 338 338 338 338 337 335 334 334 333 332 331 331 330 330 330 330 330 329 330 330 329 329 329 328 328 327 327 327 327 326 326 325 325 325 325 324 324 324 323 322 322 322 321 321 322 321 320 320
323 323 314 317 317 320 308 307 302 299 295 297 298 305 306 309 309 314 317 318 318 319 319 317 315 319 317 314 315 319 316 317 323 323 322 327 328 333 337 339 339 338 337 338 338 338 337 338 338 337 337 337 337 335 334 333 332 332 331 330 330 329 329 329 329 328 328 327 327 328 329 328 327 327 326 326 327 326 326 325 324 324 324 323 323 323 323 322 322 321 320 320 320 320 319 320 319
322 322 321 320 317 308 309 302 300 300 295 299 297 304 307 312 313 315 315 318 319 319 319 317 315 319 318 314 318 314 313 320 322 324 324 328 334 336 337 339 338 336 336 338 337 336 336 338 337 337 336 336 336 335 333 332 332 331 330 329 329 328 328 328 327 327 326 326 326 327 327 327 327 326 326 325 326 325 325 324 324 323 323 323 323 323 323 322 321 320 319 318 318 318 319 318 317
321 320 327 322 313 315 308 299 296 297 301 304 301 304 308 313 314 315 316 317 318 319 319 317 316 314 312 312 315 314 320 314 321 323 325 328 333 336 337 338 336 335 336 336 334 334 334 336 336 336 336 335 335 333 332 332 331 331 329 328 327 328 328 327 326 325 325 325 325 325 326 326 325 325 325 325 325 325 325 324 323 323 323 322 322 322 321 321 320 319 318 317 317 318 317 317 316
319 320 323 323 318 313 300 298 297 298 302 306 304 309 315 315 316 315 314 314 317 319 321 318 317 315 311 314 316 316 319 321 321 318 326 330 333 334 336 337 335 333 334 333 333 333 334 335 335 335 334 335 333 333 332 331 331 330 328 327 327 327 327 326 325 325 324 324 324 324 324 323 324 323 324 324 324 324 324 324 324 323 323 322 321 320 319 319 318 318 317 317 316 316 316 315 315
326 315 316 308 305 305 297 297 298 301 302 307 308 307 316 317 317 315 314 313 311 313 316 318 318 316 312 319 309 316 319 321 322 325 328 330 333 334 336 335 332 331 331 331 331 332 336 335 335 334 334 333 333 332 332 331 330 328 327 327 327 327 326 325 325 324 324 323 323 323 323 322 321 321 321 322 322 323 323 323 322 322 321 321 320 319 319 318 317 317 316 316 315 315 314 314 314
320 314 323 310 301 304 298 297 298 304 304 306 308 315 321 318 318 316 313 315 315 316 316 317 317 312 311 312 310 315 316 321 324 326 328 330 332 334 335 332 330 329 330 330 330 330 331 334 334 334 333 331 331 331 330 329 328 327 327 326 326 326 326 324 324 323 324 323 322 322 321 320 319 319 319 320 321 322 322 322 321 321 320 319 319 319 318 317 316 316 315 314 314 313 313 313 312
316 314 306 306 306 297 297 298 298 301 303 307 306 314 317 318 316 317 315 314 314 316 316 319 318 313 313 308 310 314 314 319 324 325 328 330 332 334 332 331 330 328 328 328 328 329 330 333 333 332 331 330 330 330 329 328 327 326 326 326 326 325 323 322 322 323 322 322 321 321 320 319 318 317 317 318 320 320 320 320 320 320 319 318 318 317 317 316 315 314 314 313 312 313 312 311 310
308 313 315 304 299 296 296 297 299 302 304 307 307 311 317 317 317 315 316 316 317 315 317 318 314 312 313 311 310 316 319 322 323 322 327 330 333 332 329 330 329 328 326 326 327 328 328 329 332 331 330 330 329 329 329 328 327 326 326 326 325 324 322 321 321 321 321 321 320 319 318 317 316 316 316 316 317 318 318 318 317 317 316 316 316 315 315 315 314 313 313 312 312 311 310 310 310
307 306 308 299 298 297 298 298 300 302 305 305 305 312 316 317 317 315 315 314 315 315 315 318 312 316 310 310 310 314 317 318 319 324 328 331 332 330 330 329 328 327 326 325 326 326 326 327 327 329 329 329 328 327 326 325 325 324 324 324 323 322 321 320 320 320 319 319 318 317 316 316 315 315 314 314 314 314 315 315 315 315 315 314 314 314 314 313 313 312 312 311 311 310 309 309 309
308 309 304 300 298 300 301 299 300 302 303 304 305 312 318 316 315 316 317 316 316 314 314 318 318 317 308 310 312 315 314 317 321 323 326 329 330 330 329 327 326 326 325 324 324 324 324 324 324 324 326 327 327 325 324 323 323 323 322 321 320 319 319 319 319 318 318 317 316 316 316 315 314 313 312 312 311 311 312 312 313 313 314 313 313 313 313 313 312 312 311 311 310 309 309 309 308
309 310 306 299 304 301 300 300 301 299 301 305 308 314 317 315 316 318 318 314 314 314 318 320 319 317 309 310 310 310 313 317 319 321 323 326 328 327 327 326 326 324 324 323 322 323 322 322 322 321 320 320 319 321 322 322 321 321 320 319 318 317 317 317 317 317 316 316 315 314 313 313 313 312 310 309 309 309 309 310 311 312 313 313 312 312 312 312 312 311 310 310 309 308 308 307 307
309 313 307 303 300 301 301 298 300 299 300 306 311 314 315 318 318 319 318 314 313 318 317 321 319 315 307 310 309 311 313 317 319 321 321 322 325 326 326 325 325 323 322 321 322 321 320 320 320 320 319 317 316 315 315 317 318 317 316 316 316 316 316 315 314 313 313 313 313 312 311 310 310 310 309 307 307 308 309 308 308 310 311 311 311 311 311 311 311 310 309 308 308 306 306 305 305
314 311 307 300 298 298 300 300 302 301 300 307 314 316 314 316 319 318 319 320 314 320 320 313 317 311 315 314 314 314 315 317 318 319 319 319 321 324 324 323 322 322 320 320 320 320 319 318 318 318 317 314 313 312 312 312 315 315 314 313 313 312 312 311 311 311 310 310 311 310 308 307 307 306 308 305 306 306 306 305 307 307 309 309 310 309 309 309 309 309 308 307 306 305 304 303 303
316 312 301 300 297 298 301 301 302 298 304 307 317 315 312 312 315 318 320 319 314 313 312 314 313 318 316 316 316 315 316 318 318 317 316 315 315 315 317 318 318 319 319 318 319 319 318 317 316 314 312 311 309 308 308 309 311 313 312 312 312 311 311 311 311 312 312 311 310 312 309 302 300 300 302 302 305 304 305 305 306 306 307 308 308 308 308 308 307 307 306 305 305 304 301 301 300
312 303 301 298 300 299 303 303 304 306 304 307 313 315 314 310 314 316 318 316 313 313 311 313 315 313 314 315 315 316 316 315 316 315 314 313 313 311 311 311 311 308 306 307 310 311 309 309 309 310 310 308 306 306 307 306 305 306 305 306 308 309 311 312 309 308 312 305 310 305 303 304 300 300 301 306 303 304 303 305 305 305 306 306 306 306 306 307 306 306 305 304 303 301 300 294 295
305 303 302 298 302 304 308 308 308 305 305 313 314 316 315 312 313 315 312 310 311 309 310 311 309 311 313 313 314 314 314 314 315 315 314 313 312 310 310 311 309 307 304 303 303 305 305 306 307 307 307 306 306 307 307 307 305 306 305 306 308 310 309 308 306 307 305 304 304 302 303 302 301 301 302 305 307 306 304 304 304 304 304 304 304 304 304 304 304 303 303 302 301 300 294 291 291
307 304 299 301 307 307 308 309 309 310 314 313 313 315 315 314 315 317 311 310 311 308 306 308 308 307 309 311 312 313 313 314 315 314 314 314 312 311 310 309 307 305 304 302 301 303 303 304 304 305 306 305 303 303 305 303 303 303 303 304 303 303 304 305 305 305 305 305 304 302 302 303 301 299 307 306 306 300 300 304 304 303 304 303 303 302 302 303 302 301 300 300 300 298 291 291 291
306 303 300 303 307 305 307 309 310 315 317 314 314 315 313 314 315 315 311 308 309 311 311 310 307 308 309 311 311 312 312 314 315 315 315 314 313 311 311 309 307 304 302 301 301 302 302 302 302 301 302 303 303 303 303 303 303 302 302 302 303 303 303 303 304 304 304 304 303 302 303 302 301 299 299 298 298 298 297 297 297 296 296 295 303 294 294 296 296 293 292 295 291 293 291 291 291
305 302 305 307 309 305 309 309 319 314 317 314 312 311 310 316 315 314 311 307 306 311 313 314 311 311 310 310 311 312 312 313 314 314 314 313 310 309 308 305 303 300 300 297 298 300 302 303 303 303 304 305 305 303 303 306 305 302 302 302 302 303 305 302 302 302 303 303 303 302 302 300 298 298 298 297 298 297 296 296 296 295 294 294 296 293 292 293 292 290 290 291 290 291 291 291 290
296 301 303 306 308 306 310 311 315 315 314 312 311 314 314 312 311 315 313 311 313 317 315 313 312 312 313 312 312 311 312 313 314 314 314 311 308 305 302 300 299 297 297 296 298 299 301 302 304 305 308 305 304 303 303 305 302 302 302 302 302 302 303 302 301 301 302 302 302 301 300 297 297 296 296 296 296 297 296 295 294 294 293 293 294 292 291 291 290 290 290 290 290 290 290 290 290
299 296 301 303 307 306 310 310 313 312 310 312 315 315 311 311 307 314 310 313 314 314 313 312 312 313 313 311 312 312 313 314 314 313 311 309 306 303 302 300 302 301 298 298 299 300 301 301 302 303 302 303 302 303 303 302 301 301 303 303 301 305 302 302 301 301 302 300 301 300 300 297 296 295 296 295 296 296 296 296 295 293 292 292 293 292 290 290 289 289 290 290 290 290 290 290 290
296 296 301 303 307 308 310 311 311 312 313 314 314 311 310 312 311 313 309 310 312 311 312 312 312 312 312 312 312 313 313 314 311 309 307 306 307 306 305 303 300 299 298 299 300 300 302 302 300 300 302 302 301 302 301 301 301 302 302 301 301 306 301 301 301 301 299 300 300 300 299 296 296 296 295 296 296 296 295 295 293 293 293 292 292 290 290 289 289 288 289 289 289 289 289 289 289
296 298 301 302 305 308 310 312 311 311 311 312 310 310 311 313 314 308 310 311 311 312 311 311 311 310 311 312 313 313 313 311 308 307 305 305 304 302 303 302 302 302 302 302 300 301 302 302 300 300 301 300 301 302 301 301 302 301 301 301 301 303 301 302 301 299 299 299 298 299 298 297 296 295 295 295 295 295 294 294 293 292 292 291 290 289 290 289 288 288 288 289 289 289 289 289 289
300 299 299 301 304 308 311 308 308 311 310 311 309 309 309 312 310 300 310 311 312 310 310 311 310 309 311 311 312 313 310 308 308 305 303 303 304 302 302 303 303 303 304 299 300 303 300 299 300 299 300 303 304 301 301 301 302 301 302 301 301 301 302 301 300 299 299 299 299 299 298 298 297 296 295 295 295 294 293 293 292 292 291 290 290 289 289 290 288 288 289 288 288 288 288 288 288
297 300 300 299 304 308 310 309 310 309 307 310 310 307 310 311 310 303 308 311 311 309 308 309 309 309 310 311 310 309 309 309 306 305 302 302 302 301 301 300 300 301 301 300 302 302 299 299 299 300 300 302 302 301 302 301 301 302 302 300 301 302 302 300 299 299 300 298 299 298 297 297 298 295 296 295 295 294 293 292 292 291 290 290 290 289 289 289 288 289 289 289 288 288 288 288 289
297 299 295 298 303 303 306 306 308 310 305 307 308 304 302 305 302 306 309 311 310 308 307 308 308 308 309 308 308 308 307 307 306 304 304 305 303 303 300 301 303 301 300 300 299 300 299 299 299 298 299 301 300 300 301 300 301 302 301 301 301 304 301 300 298 298 298 299 298 298 297 297 296 295 294 295 295 293 293 292 291 291 290 290 289 289 289 288 287 288 289 288 287 288 287 287 289
301 299 296 295 296 298 306 307 308 307 308 308 307 293 296 302 304 307 309 309 309 307 306 307 307 307 307 307 307 306 306 307 306 305 305 305 303 303 301 301 302 303 301 299 299 300 300 301 302 300 300 300 300 300 300 300 301 301 301 300 302 300 299 298 299 298 299 298 298 297 296 296 295 294 294 294 293 292 292 291 290 289 289 289 289 289 288 287 287 287 288 286 289 287 286 286 286
292 297 299 291 291 292 302 304 307 303 309 308 308 294 297 299 304 307 309 309 307 305 306 306 306 306 306 306 305 304 305 307 307 307 306 303 303 303 302 303 302 304 300 299 300 300 299 300 300 299 302 300 300 300 300 300 300 300 300 301 301 299 299 298 297 298 297 297 297 295 296 296 295 295 295 293 292 292 291 290 289 288 290 289 288 288 287 287 286 287 287 285 285 286 285 286 286
293 290 286 291 289 294 302 307 306 300 305 309 306 295 297 299 303 307 309 309 308 305 305 305 305 305 305 305 304 303 304 307 307 307 305 304 302 301 302 301 300 301 299 299 300 299 299 301 303 299 300 300 300 302 300 300 300 300 301 303 300 300 298 298 297 298 297 296 296 295 295 296 294 294 294 294 292 291 290 289 288 289 289 288 288 287 288 286 286 287 287 286 284 285 286 284 285
292 289 288 287 291 293 297 302 305 305 305 306 304 295 296 297 303 306 308 308 307 305 305 304 304 304 304 304 303 303 303 304 305 306 304 304 305 303 302 300 299 300 299 299 299 298 298 299 302 300 300 300 300 301 301 300 300 300 300 300 300 299 297 297 297 297 297 296 295 294 294 295 293 294 294 293 292 291 289 289 288 288 289 287 287 286 286 287 286 286 286 288 286 284 284 283 284
286 290 286 290 288 292 291 300 302 304 303 299 304 298 298 299 302 305 307 307 306 304 303 303 303 303 304 304 303 303 302 302 302 305 305 304 303 302 302 301 299 299 299 300 299 298 299 300 300 300 300 300 300 301 301 300 300 300 299 299 300 298 297 297 297 297 296 295 294 294 295 294 294 293 293 293 291 292 290 289 287 288 288 287 286 286 285 286 286 285 285 286 287 285 283 283 283
284 286 286 286 291 293 292 292 298 303 303 299 300 300 297 298 301 303 305 307 306 304 303 302 302 302 303 303 303 303 302 302 303 305 306 305 302 300 300 300 299 299 300 300 298 299 300 301 300 301 300 300 300 301 301 300 300 300 299 299 298 297 298 297 296 296 296 295 294 294 295 293 294 292 292 292 290 290 289 288 287 287 287 286 286 285 285 286 286 285 284 285 287 286 283 284 284
288 290 289 289 288 290 292 298 302 302 299 298 298 296 295 297 299 302 304 306 305 303 303 302 302 302 302 302 303 303 302 303 305 305 306 304 303 302 299 299 299 299 301 299 299 299 299 300 300 300 299 300 300 300 300 299 299 298 297 297 297 297 297 297 296 295 295 294 295 294 293 292 292 293 290 290 289 290 288 287 287 287 286 286 285 285 284 284 284 284 284 285 284 286 286 285 284
290 288 289 290 291 292 297 298 301 303 299 297 299 298 296 296 298 301 303 305 304 303 301 301 302 302 302 302 302 303 303 303 304 304 304 304 301 301 299 299 299 299 298 299 298 298 299 300 300 298 299 300 300 298 298 297 297 296 297 296 295 295 296 296 295 294 294 294 294 293 292 292 291 291 291 289 288 289 288 287 286 286 285 286 286 285 284 285 286 285 284 285 284 284 283 284 284
290 288 287 288 291 287 294 296 300 303 297 295 299 296 296 297 299 301 303 303 301 301 301 301 301 302 302 302 303 303 304 304 303 302 305 304 302 299 299 298 299 297 297 297 298 298 299 299 299 298 299 299 299 299 298 298 297 297 296 296 296 295 294 294 293 293 294 295 294 292 292 291 290 290 291 289 289 287 286 286 286 285 285 285 287 286 286 288 284 284 283 283 284 283 282 284 284
291 287 287 288 287 288 293 297 301 301 297 292 298 295 295 297 299 301 301 301 303 304 303 302 302 302 302 303 303 304 303 301 301 302 304 305 303 302 298 297 296 297 297 297 298 298 298 298 298 298 298 298 298 299 299 298 298 298 298 297 296 295 296 295 294 294 294 292 292 291 291 290 290 289 289 290 288 287 286 285 285 285 284 287 284 283 283 283 283 283 283 281 282 283 284 285 283
289 287 286 285 289 286 283 291 299 299 296 293 296 293 294 298 300 300 302 303 303 305 304 304 304 302 303 303 304 303 302 301 301 301 302 304 303 304 298 297 296 297 297 297 298 298 298 299 298 298 298 298 298 300 300 301 300 299 299 298 297 296 293 294 293 293 293 292 291 291 290 289 290 289 288 288 287 286 285 285 285 284 284 285 284 283 282 282 283 282 282 283 282 280 281 282 284
290 289 288 288 288 291 288 288 296 297 298 298 295 291 290 294 293 296 300 304 303 304 304 304 305 305 306 306 306 305 303 302 302 302 301 302 302 301 299 297 297 297 297 297 297 298 298 298 298 299 298 298 299 301 300 300 298 296 296 295 295 294 293 292 291 291 293 293 290 288 288 289 289 289 288 287 288 285 285 285 285 284 284 284 285 282 282 282 282 282 282 282 281 280 279 281 282
290 292 291 291 292 291 292 292 291 288 287 295 293 284 284 291 294 295 298 300 300 303 302 302 303 304 305 304 305 306 305 304 303 302 301 301 301 301 299 297 297 296 297 298 298 297 297 298 299 299 298 299 299 300 300 298 297 295 294 292 291 291 290 290 290 291 290 289 287 288 288 288 289 287 287 287 286 288 284 284 284 284 284 283 285 283 282 282 282 282 282 282 281 281 280 280 280
288 289 295 294 293 292 292 291 290 284 284 290 293 285 282 289 291 294 296 297 298 301 301 302 303 304 304 304 305 306 305 305 306 304 303 301 300 301 299 297 296 297 297 299 298 298 299 299 299 299 298 299 300 300 299 299 296 295 294 293 293 292 292 292 293 293 291 289 289 287 287 288 288 287 286 285 286 286 285 284 284 284 284 283 285 282 281 281 282 282 284 282 281 284 280 278 279
286 293 294 294 293 292 292 292 290 288 292 292 294 289 284 283 289 296 296 296 297 298 300 302 302 303 304 305 306 306 307 306 305 305 304 304 303 302 299 299 297 298 298 298 298 299 299 299 299 299 299 300 301 300 298 298 296 295 295 294 295 294 294 294 292 291 290 290 288 287 287 286 287 287 286 285 285 285 285 284 283 283 283 283 285 281 281 282 283 283 283 282 282 282 280 278 278
288 293 295 292 292 292 292 291 289 289 289 284 288 292 285 284 290 296 296 293 295 296 298 301 302 304 304 305 306 307 308 308 307 306 306 305 304 305 303 300 300 300 299 298 300 300 300 300 299 299 299 300 300 299 298 297 297 296 296 296 295 297 295 293 291 291 290 290 287 287 286 286 286 286 285 285 284 284 285 284 283 283 282 282 284 283 281 282 282 281 281 281 280 280 281 281 279
294 296 294 293 293 293 292 290 289 287 286 283 285 287 285 283 289 291 295 294 294 296 298 301 303 304 304 305 306 308 309 309 309 309 308 308 307 307 306 305 303 300 300 301 301 301 301 300 299 299 299 300 300 299 298 297 297 298 295 296 296 294 293 291 291 290 289 288 287 286 286 286 285 284 284 284 284 284 283 283 283 282 282 283 284 281 281 281 281 281 281 280 281 280 280 280 280
299 296 292 291 291 290 290 288 286 286 283 283 285 286 286 283 287 290 290 292 296 298 299 302 304 305 305 306 307 308 309 309 309 310 310 309 310 309 309 307 306 302 301 301 300 300 301 300 299 298 299 300 300 299 298 297 297 297 297 297 296 294 293 292 290 289 288 288 287 286 286 286 285 284 284 283 284 284 284 285 283 282 283 283 283 281 280 280 281 281 281 281 280 280 279 279 280
296 291 289 289 286 289 286 285 285 282 280 284 285 287 287 283 285 292 297 300 300 300 299 300 302 304 305 306 308 309 310 310 310 310 310 310 310 310 309 308 306 303 303 301 300 301 300 300 299 299 299 300 299 299 298 298 298 296 296 297 297 295 294 293 291 289 289 288 287 286 286 285 284 285 283 282 282 283 284 282 283 281 282 281 280 280 281 280 281 281 280 280 279 280 280 281 279
294 292 289 285 283 284 281 283 280 281 280 284 286 286 286 285 291 294 298 300 301 303 303 302 302 303 305 306 308 309 310 310 310 310 310 309 309 309 308 306 305 303 302 302 301 301 301 300 300 299 300 301 299 299 298 298 297 296 297 297 297 296 294 294 292 290 290 289 288 287 286 284 284 284 282 282 282 282 282 281 281 280 280 281 281 280 280 280 280 280 280 280 279 279 279 279 278
289 287 285 283 281 280 277 279 282 281 284 285 285 288 284 290 294 299 299 302 302 302 305 305 304 304 306 307 308 309 310 310 310 310 310 310 310 309 308 306 305 304 303 302 301 300 300 300 300 299 300 300 299 298 299 298 298 298 298 297 296 295 294 294 293 291 290 289 288 287 286 285 284 283 282 281 281 282 281 282 281 281 281 280 281 280 280 280 280 280 280 279 279 278 279 278 278
287 290 286 283 282 281 277 280 278 280 282 284 287 284 283 284 288 292 294 295 296 297 301 305 306 306 307 308 308 308 308 309 310 310 310 311 311 310 309 308 306 304 303 301 300 300 299 299 299 299 299 299 299 299 298 297 297 298 298 296 295 295 296 295 294 292 290 288 288 287 286 284 283 283 281 281 283 281 282 281 281 280 281 280 280 279 281 279 279 280 280 280 280 279 279 279 278
290 290 289 284 282 283 281 282 283 282 281 282 284 283 285 288 295 294 295 296 296 297 299 302 303 306 306 306 305 305 306 307 308 309 310 311 312 311 311 310 308 307 304 302 301 300 299 300 300 300 299 299 299 298 298 298 298 298 297 295 295 296 296 294 292 291 289 288 287 286 285 283 282 281 282 281 282 281 281 281 281 280 281 280 280 280 279 279 279 279 279 279 278 282 279 278 278
289 288 283 285 287 285 282 283 283 283 283 278 284 284 287 295 294 296 295 295 294 295 297 298 299 301 304 304 304 305 305 306 307 308 309 310 310 311 311 310 309 308 305 303 301 301 300 300 300 299 299 298 298 298 298 298 297 296 295 295 295 295 293 292 291 289 288 287 286 285 284 283 282 282 283 282 281 281 280 279 280 280 280 280 279 280 279 278 279 278 278 279 278 279 279 278 279
288 282 285 289 288 285 283 280 281 282 278 280 284 282 283 284 282 292 291 292 293 293 295 297 297 299 299 299 300 302 304 304 306 307 308 309 310 310 310 309 308 307 305 304 302 301 301 300 299 299 298 298 298 298 297 297 296 295 294 294 295 294 293 291 290 289 288 286 285 284 283 283 281 282 282 283 281 280 279 282 280 280 280 280 280 279 279 278 278 278 278 279 279 278 278 278 279
289 286 290 284 283 282 284 283 277 277 276 278 280 282 281 282 283 286 288 290 292 293 295 296 296 297 298 299 298 298 299 301 303 304 305 307 308 308 309 307 306 305 304 303 302 301 301 300 299 299 297 298 298 298 297 297 296 296 295 294 293 293 292 291 290 289 288 286 284 284 283 282 282 281 282 281 280 279 279 279 279 279 278 279 279 279 279 278 278 278 279 278 279 278 278 277 278
290 289 287 286 284 282 280 279 281 282 276 278 278 279 276 283 283 287 289 292 293 294 294 295 297 298 300 300 299 298 298 300 301 303 303 305 306 307 307 307 305 304 303 303 302 301 300 300 299 297 297 298 297 297 296 296 296 296 294 293 292 292 291 290 290 289 287 286 285 284 282 281 281 282 280 281 279 279 279 279 279 279 279 278 278 278 278 278 278 278 278 279 278 278 278 277 277
281 282 281 282 283 283 283 282 279 279 278 277 275 272 276 282 285 286 287 288 291 293 294 296 298 300 300 300 299 299 299 299 300 302 303 304 305 306 306 306 305 303 303 302 301 300 300 299 298 297 297 297 297 296 296 295 295 294 293 292 291 291 290 290 289 289 287 285 284 283 282 282 281 280 280 279 279 278 278 278 278 279 278 278 278 278 278 278 277 277 278 279 278 278 278 277 278
280 279 279 280 278 280 279 277 282 279 278 276 274 271 278 285 286 287 286 287 288 289 296 297 297 298 299 299 299 299 299 299 300 300 301 303 304 305 305 305 304 302 301 299 299 299 299 299 299 297 297 297 296 296 295 295 294 293 292 291 290 290 290 289 289 288 286 285 283 282 282 281 280 280 280 279 279 279 278 278 278 278 278 278 278 277 278 277 277 277 277 279 279 278 277 277 277
Wind_Speed
10 8 7 5 4 3 4 3 3 3 2 6 5 7 3 8 2 1 2 3 3 4 4 6 8 4 2 8 15 12 15 5 4 2 3 6 8 9 9 9 11 12 12 11 10 10 11 17 20 21 21 21 20 21 21 20 20 19 19 19 18 17 17 16 16 17 17 17 17 17 17 17 17 17 17 17 17 17 17 17 18 18 18 17 17 18 17 17 17 17 17 17 17 17 17 18 17
7 8 7 3 3 4 1 2 2 2 3 6 8 6 5 6 4 2 3 0 4 1 3 10 12 13 16 15 14 9 14 11 6 5 5 8 10 6 8 9 10 13 12 12 11 11 11 14 20 20 21 21 20 20 20 20 20 19 19 19 18 17 17 17 16 16 16 16 17 16 16 17 17 17 17 17 17 17 17 17 17 17 17 17 17 17 17 16 17 17 17 17 17 17 17 17 16
8 7 6 3 1 1 5 2 4 3 5 7 6 7 7 5 5 3 6 9 3 4 9 8 11 10 5 8 10 8 2 6 9 7 7 8 13 6 7 8 8 12 13 11 11 10 9 13 19 20 21 21 20 20 20 20 20 19 19 19 18 18 17 17 16 16 16 16 16 16 16 17 17 17 17 17 17 17 17 17 16 16 17 17 16 16 16 17 17 17 17 17 17 17 16 16 16
7 4 2 2 1 1 2 1 4 5 6 5 5 8 9 5 3 11 5 5 6 5 2 4 7 2 4 11 9 14 10 6 4 4 7 5 3 7 8 8 10 10 11 9 10 9 10 14 18 20 20 20 20 19 20 20 20 19 19 19 18 17 17 16 16 16 15 16 16 16 17 17 17 17 17 17 17 17 17 16 16 16 16 16 16 16 16 17 17 17 17 17 17 16 16 16 16
6 2 0 2 1 2 1 2 4 4 7 5 6 7 8 6 11 11 7 5 5 3 5 4 4 5 9 8 5 2 4 8 7 7 3 4 6 6 7 7 9 12 11 12 11 11 12 17 17 18 20 20 20 20 20 20 19 19 19 19 18 17 16 16 16 15 15 16 16 16 17 17 17 17 17 17 17 17 16 16 16 15 15 16 16 16 16 17 17 17 17 17 16 16 16 16 16
6 2 1 0 1 2 2 3 5 9 7 7 7 2 3 10 13 12 10 7 5 2 6 3 3 4 6 6 5 4 2 4 4 5 2 4 6 4 6 6 11 13 13 11 12 10 11 16 18 18 19 20 20 20 20 19 19 19 19 18 17 16 16 16 15 15 16 16 16 16 17 17 17 17 17 17 17 16 16 16 16 15 15 15 16 16 16 16 16 16 17 16 16 16 16 16 16
3 2 1 1 1 2 4 6 7 6 9 11 9 3 12 10 10 14 10 9 3 2 1 5 11 9 8 3 7 5 5 5 4 1 2 6 5 4 3 9 12 12 12 12 11 11 12 16 17 19 19 19 20 20 20 19 19 19 18 18 17 16 16 16 15 15 15 16 16 16 17 17 17 17 17 17 17 16 16 16 16 15 15 16 16 16 16 16 16 16 16 16 16 15 15 15 16
3 2 2 3 3 2 7 7 8 6 5 11 13 2 12 13 7 8 8 10 7 4 3 8 6 7 4 7 5 1 6 7 6 5 5 4 5 6 5 10 12 13 14 12 11 10 14 16 17 18 19 19 20 20 20 20 19 18 18 17 17 16 16 15 15 15 15 15 16 16 17 17 17 17 17 17 17 16 16 16 15 16 15 15 15 16 16 16 16 16 16 16 15 15 15 16 16
3 3 2 4 6 2 5 10 9 7 11 10 7 7 9 12 10 9 8 3 7 6 6 7 6 7 6 11 6 4 4 4 4 4 4 5 4 6 7 10 11 12 14 13 11 10 9 15 16 17 18 18 19 20 20 19 19 18 18 17 17 16 16 15 15 15 15 16 16 16 17 17 17 17 17 17 17 16 16 16 16 16 15 15 15 15 15 16 16 15 15 15 15 15 15 15 16
4 3 3 3 3 9 7 7 9 9 10 13 11 4 7 8 9 9 6 9 7 10 7 6 1 7 10 8 6 4 2 2 3 5 4 4 4 7 10 12 13 16 13 12 11 10 9 15 16 16 16 18 19 19 19 19 18 18 18 17 17 16 16 16 15 15 15 15 16 16 16 17 17 17 17 17 17 17 16 16 16 15 15 15 15 15 15 15 15 15 15 15 14 14 15 15 16
5 6 3 5 8 9 10 8 10 8 12 11 11 7 8 5 8 8 7 5 8 8 9 8 10 11 9 6 3 2 1 2 5 5 3 4 6 10 12 11 11 12 14 13 12 11 10 10 17 15 15 17 18 18 19 18 18 18 17 17 17 16 16 15 15 15 15 15 15 16 16 17 17 17 17 17 17 17 16 16 15 15 15 15 15 15 15 15 15 15 15 15 14 14 15 15 15
4 6 6 8 9 9 9 9 10 9 12 9 11 3 3 5 5 7 10 8 8 10 8 8 6 10 8 7 3 3 3 4 4 4 4 5 8 10 10 9 11 12 15 14 13 11 10 9 9 14 14 15 16 17 18 18 18 17 17 17 17 16 16 15 15 15 15 15 15 16 16 17 17 17 17 17 17 17 16 16 15 15 14 14 15 14 15 15 15 15 15 14 14 13 14 14 14
5 5 8 7 9 9 10 12 11 9 11 13 9 5 6 6 5 8 9 9 8 9 8 5 14 7 6 6 3 4 5 2 3 4 4 6 8 8 10 12 12 12 12 13 14 11 10 9 9 9 12 17 16 16 16 17 17 17 17 17 16 16 16 15 15 15 15 14 14 15 15 16 17 17 17 17 16 16 16 15 15 14 14 14 15 15 15 15 16 15 15 15 14 13 11 13 13
6 5 5 10 6 11 11 11 8 12 12 8 10 6 7 6 6 6 7 9 11 9 5 14 10 12 7 5 2 4 4 3 3 3 5 9 8 12 13 12 11 10 12 12 11 11 9 9 9 9 9 10 10 12 15 16 16 16 16 16 16 16 15 15 14 13 13 12 12 13 14 15 15 16 16 16 15 15 15 15 15 15 14 14 15 15 15 15 16 15 15 14 14 13 11 11 12
7 3 5 7 9 10 12 11 13 12 9 9 5 10 8 6 8 6 10 8 7 7 4 8 3 10 6 13 6 7 7 6 4 3 9 10 10 12 12 11 11 11 11 11 9 9 10 9 8 8 7 7 8 7 6 10 16 15 15 15 15 15 15 14 13 12 10 9 9 10 12 13 14 14 14 14 14 14 13 13 14 14 15 14 13 14 15 14 15 15 14 14 14 14 11 12 13
5 4 6 9 13 12 10 13 10 11 8 10 7 10 8 5 6 9 2 4 3 3 5 4 6 2 10 10 11 12 11 8 5 6 11 12 11 12 12 11 11 11 10 10 9 8 8 7 7 6 6 7 7 7 8 7 11 14 14 14 14 14 13 12 10 9 6 4 5 10 13 10 10 9 12 8 11 12 12 10 12 13 14 15 13 13 14 14 14 15 14 14 15 14 14 14 15
4 3 9 11 15 15 10 10 12 12 4 6 11 11 9 7 8 8 6 14 12 7 11 8 6 5 6 7 17 16 12 8 7 10 12 10 10 8 8 7 7 7 5 8 8 6 5 6 5 6 8 8 7 7 7 7 8 12 10 12 12 11 8 6 6 4 3 3 3 7 8 5 5 4 4 3 6 3 7 9 9 11 12 15 14 14 14 15 14 14 15 13 14 15 15 15 15
4 10 11 13 14 15 10 12 9 5 8 5 11 7 11 9 4 7 12 12 12 11 11 10 13 12 11 13 16 14 12 12 10 13 11 10 9 9 8 7 8 7 7 6 7 6 7 6 6 6 7 8 8 6 5 6 6 7 5 4 4 4 5 5 5 5 6 4 7 6 4 3 4 3 3 5 2 2 4 6 11 12 13 14 15 16 14 15 14 14 14 13 14 14 15 6 7
9 6 9 18 13 9 5 10 13 8 8 10 10 8 10 9 16 7 9 9 12 10 8 10 12 11 12 12 15 14 13 11 9 10 12 12 10 12 10 8 8 8 7 6 5 6 5 6 5 6 7 7 7 6 5 5 5 4 4 4 4 5 5 4 4 5 5 5 5 5 4 5 5 4 2 4 4 4 3 11 12 12 13 14 14 16 15 15 14 14 14 13 13 13 6 4 6
11 8 13 17 3 8 12 13 12 12 9 12 12 8 5 7 5 7 8 14 12 13 11 9 10 12 10 11 14 13 12 10 10 12 12 8 11 12 11 10 9 9 8 5 5 5 6 6 5 5 6 6 5 5 4 5 5 5 5 4 3 3 4 4 4 4 4 4 4 4 3 3 5 6 7 10 8 5 6 7 10 11 10 12 15 8 12 11 13 12 13 13 8 4 4 4 4
7 11 15 7 7 9 13 13 13 4 11 7 11 9 7 4 4 5 12 11 8 7 10 13 15 15 13 13 11 13 13 12 10 11 12 8 9 9 9 9 9 9 8 7 5 6 6 6 6 6 5 5 5 5 5 5 5 5 4 4 3 3 4 4 4 5 4 4 5 3 4 4 4 4 4 5 5 6 5 5 4 6 5 6 8 5 7 6 6 6 6 7 6 5 4 5 3
4 16 16 5 4 12 8 13 4 1 8 9 3 5 8 6 4 5 13 11 9 10 11 10 14 15 16 14 12 11 11 12 12 11 12 10 11 11 8 8 8 9 8 7 7 6 6 5 5 5 4 3 3 4 5 5 5 4 4 4 5 4 5 6 6 6 6 7 5 6 5 5 5 5 4 4 5 5 5 6 5 5 5 5 6 6 6 6 6 6 7 7 7 6 5 5 4
12 12 12 12 13 8 6 4 3 4 5 6 11 7 8 8 5 3 7 5 4 7 11 15 15 14 14 14 16 13 12 10 10 11 10 10 9 10 10 9 9 9 7 7 6 6 6 5 4 6 4 1 3 5 4 4 5 5 5 4 4 3 4 5 6 5 6 7 7 6 6 5 5 6 5 5 5 5 5 5 6 5 5 6 6 6 6 6 6 6 7 7 6 6 6 4 6
12 12 8 11 10 15 10 2 5 2 8 4 6 12 12 10 9 4 8 5 6 13 15 15 15 12 13 14 14 16 11 11 10 9 5 6 8 11 9 9 6 8 8 7 6 6 5 6 7 6 5 3 4 4 4 5 5 6 5 5 5 6 6 5 4 6 6 7 6 6 5 5 5 5 5 5 5 5 5 5 5 6 6 6 6 6 6 6 6 6 5 5 6 6 6 4 6
13 14 9 8 8 11 5 3 1 3 0 1 4 14 12 12 10 9 8 8 8 12 15 16 15 14 11 13 14 14 12 9 8 9 8 6 6 7 8 7 10 9 12 7 6 6 5 6 7 6 5 4 4 4 5 5 5 4 5 4 4 5 5 4 5 6 6 6 5 5 4 6 6 6 6 5 6 5 5 5 6 6 6 6 6 6 6 6 6 6 6 6 6 6 6 4 4
11 11 6 8 7 6 3 1 2 1 4 3 7 5 9 6 13 9 10 10 8 9 13 14 16 17 15 13 13 13 12 10 9 11 9 6 7 10 9 10 8 11 7 8 8 7 8 7 6 6 4 5 4 5 5 5 5 6 5 4 5 5 4 6 6 6 6 6 5 4 5 4 5 6 6 6 5 5 5 5 6 6 6 6 6 6 6 6 6 6 6 6 6 5 5 6 4
5 9 11 9 9 4 4 6 7 4 5 4 6 8 7 6 8 4 7 11 9 10 11 10 12 14 14 15 12 9 9 10 12 10 9 8 8 8 11 9 10 10 8 10 8 5 6 6 5 5 5 4 4 5 4 4 5 6 5 5 6 4 4 6 6 6 6 6 5 5 4 5 5 5 5 5 3 3 5 6 6 6 6 6 5 6 6 6 6 6 6 7 7 6 5 6 5
12 7 5 13 8 4 1 5 8 8 3 8 6 7 9 2 3 5 10 12 12 13 12 10 9 11 11 13 13 10 9 7 7 10 13 13 8 9 10 11 11 8 7 9 8 6 5 5 6 6 5 4 5 4 4 5 6 5 5 6 5 5 6 6 6 6 5 6 4 5 5 6 6 6 4 5 4 4 4 6 6 6 6 6 6 6 7 6 6 7 5 6 6 5 6 6 6
9 9 6 8 4 5 7 10 11 13 3 8 6 9 3 3 1 13 12 10 11 12 12 11 10 11 12 11 10 11 10 10 8 8 7 6 7 6 10 7 10 10 6 9 9 7 5 5 6 5 5 4 5 4 6 6 6 6 6 5 4 5 6 6 6 6 6 4 4 4 5 6 6 6 6 4 5 5 4 6 6 5 6 6 6 5 6 6 6 7 5 5 6 6 6 6 5
8 4 2 5 4 7 8 9 7 9 7 16 12 4 4 5 11 11 12 11 11 11 10 10 9 10 9 12 12 10 8 9 9 7 6 5 5 8 7 11 9 7 8 7 8 6 5 4 6 3 4 4 5 5 6 6 5 6 5 4 4 7 6 6 5 6 6 5 5 5 5 5 5 5 5 5 6 6 6 6 5 5 6 5 5 5 6 6 6 7 5 5 6 6 7 6 6
4 2 3 3 7 9 10 9 12 11 8 14 9 6 4 6 9 10 9 11 12 13 12 11 10 9 8 9 10 12 9 7 8 8 7 9 8 6 9 9 10 5 6 9 8 6 8 6 4 5 3 4 5 5 6 6 6 6 5 4 6 6 6 6 5 6 6 5 5 6 4 4 5 5 5 5 6 6 6 5 5 6 6 5 6 6 6 6 6 6 6 6 6 6 6 6 6
4 3 5 4 11 4 9 10 13 10 7 10 6 7 7 7 9 11 9 9 9 11 10 10 10 9 8 8 11 11 9 8 9 8 9 8 7 7 9 11 12 6 6 8 8 7 9 6 2 3 4 5 5 6 6 6 5 5 5 5 6 5 6 6 6 5 6 6 5 5 4 5 5 5 5 4 5 5 4 4 5 6 5 6 6 6 5 6 6 6 6 5 7 6 6 8 6
4 7 3 8 5 6 5 8 10 7 8 8 8 5 10 4 7 7 10 11 8 10 10 10 10 10 8 8 8 10 11 9 8 8 10 9 6 7 8 7 10 8 8 8 8 9 9 7 5 4 5 5 6 7 5 5 6 6 6 5 5 5 6 6 6 6 6 6 5 4 4 5 4 5 5 6 3 3 3 4 4 6 5 6 6 7 6 5 6 6 6 6 5 5 6 8 8
5 5 5 6 11 7 7 3 2 13 12 8 4 2 3 9 11 10 9 11 10 10 10 10 9 8 9 8 8 10 10 11 11 10 11 9 7 10 7 7 10 7 5 7 8 8 8 7 6 5 6 5 6 6 6 6 6 6 6 6 5 6 5 5 6 6 6 5 5 4 4 5 4 5 5 4 4 3 3 4 4 6 5 6 5 5 6 5 5 6 7 7 6 5 5 8 9
6 6 6 3 10 11 7 6 5 12 11 11 6 3 9 11 10 10 11 10 10 10 10 10 9 9 9 9 9 10 9 10 9 9 10 10 10 12 8 6 9 8 5 7 9 9 9 6 6 6 6 7 7 6 5 6 6 5 6 6 5 5 5 6 6 6 5 5 5 5 5 5 4 4 4 4 3 4 3 5 5 6 6 5 4 3 5 5 5 6 7 8 6 4 5 7 8
4 7 7 4 9 9 10 3 6 12 9 8 10 7 10 11 10 9 9 9 9 10 9 8 8 7 8 8 8 9 9 8 7 8 6 8 10 9 9 10 9 8 8 9 8 9 10 6 6 6 5 7 6 5 6 6 6 6 6 5 6 5 5 5 5 5 5 5 5 5 5 4 4 3 4 4 5 4 4 5 4 5 5 5 3 3 5 6 7 8 8 7 7 4 5 6 7
3 4 6 5 9 8 8 5 5 7 7 8 11 8 10 11 10 10 10 9 8 11 11 9 9 8 8 7 9 9 10 9 8 8 6 8 8 10 11 9 8 9 9 10 9 9 9 8 7 6 6 7 7 6 5 6 6 5 4 5 6 5 5 4 5 5 5 5 4 5 4 3 3 3 4 4 5 5 6 4 4 4 4 4 3 3 4 5 6 5 7 6 7 6 4 6 8
5 1 4 5 3 4 2 6 8 6 6 6 8 9 8 9 9 9 8 9 10 12 11 11 11 10 10 10 9 11 9 8 10 8 5 6 5 8 8 8 8 11 8 9 9 10 9 8 7 7 6 7 7 6 6 5 4 5 4 5 6 5 5 5 5 5 5 4 5 4 3 3 3 3 3 4 5 5 6 5 4 4 3 4 4 4 4 4 6 6 6 7 5 5 3 5 8
2 2 5 7 2 2 3 6 7 2 6 3 8 10 9 8 9 8 10 9 6 8 11 13 14 11 11 11 11 12 11 11 10 10 8 7 8 6 7 6 6 8 9 10 9 9 9 8 7 7 6 7 7 7 6 5 3 3 4 5 7 4 3 5 6 6 5 5 4 3 3 3 4 4 4 3 4 5 5 5 4 3 3 3 4 5 4 5 6 6 7 6 7 6 3 2 6
4 4 6 6 9 6 2 3 7 4 2 6 8 9 6 6 5 6 6 5 5 5 7 7 8 10 11 12 13 14 13 13 13 12 11 10 9 7 7 7 9 9 8 9 8 9 9 8 8 8 7 6 6 6 4 7 8 9 8 7 6 4 5 6 7 6 5 5 5 3 3 3 4 4 4 4 4 4 4 4 4 3 3 4 5 4 5 5 5 6 6 6 4 5 5 4 5
6 11 9 7 10 3 4 4 7 7 6 7 10 8 4 4 9 7 6 4 6 6 6 7 6 7 7 9 9 11 13 14 14 11 10 10 11 9 10 8 7 7 8 9 9 9 7 9 8 9 7 7 6 7 9 8 9 8 8 7 7 7 6 6 5 4 4 5 4 4 3 4 4 4 3 4 3 3 3 3 3 3 4 5 4 4 5 6 4 4 6 6 5 3 6 3 5
4 1 7 10 7 12 11 10 8 3 2 4 9 5 2 3 6 9 8 7 9 8 9 10 9 9 10 11 11 9 9 10 14 14 13 12 12 10 10 9 9 8 7 6 9 7 6 7 8 8 7 6 7 8 9 8 7 8 7 6 5 4 4 4 5 6 5 5 5 3 4 4 4 4 3 3 2 2 3 3 3 3 4 5 5 5 4 5 6 5 5 4 5 4 3 4 5
4 2 2 8 10 11 14 11 6 4 5 4 4 3 3 1 6 6 7 7 9 9 10 10 10 10 10 11 10 10 11 11 9 9 9 9 10 10 10 10 11 8 8 4 6 6 6 6 6 8 7 6 7 8 8 7 7 6 7 6 6 6 6 4 4 5 6 6 6 4 4 4 4 3 3 3 2 2 2 2 3 4 4 3 3 5 5 4 5 4 5 4 5 4 4 5 6
5 4 4 3 10 11 11 11 3 4 6 6 1 1 2 4 5 6 6 8 9 9 9 10 10 10 9 10 11 10 10 11 12 12 11 10 9 11 12 10 10 9 8 5 5 5 7 7 7 7 7 7 7 8 7 7 7 6 5 5 5 5 6 5 7 6 6 6 6 5 4 4 3 3 2 2 2 3 2 2 3 4 4 4 3 5 4 3 4 4 4 4 5 5 3 5 4
3 4 5 6 6 7 5 5 6 4 10 5 2 4 1 2 4 7 8 9 10 10 10 10 11 12 12 11 11 10 10 11 12 12 13 13 12 10 9 10 9 8 8 9 6 5 5 7 7 7 7 7 7 8 7 6 7 7 6 6 5 4 7 7 6 6 6 5 5 4 5 5 4 2 1 2 3 3 2 2 3 4 3 4 3 4 3 3 3 2 3 3 3 6 4 4 4
5 9 8 7 6 5 4 5 7 3 3 7 6 3 1 3 4 8 7 6 10 11 11 10 11 12 13 12 11 10 9 9 10 11 12 12 12 10 9 7 7 8 7 7 7 5 5 7 7 7 6 7 7 8 7 6 6 6 6 5 7 7 7 6 6 6 6 5 4 4 5 6 5 3 2 2 2 1 2 3 3 3 3 3 3 4 4 4 4 3 2 3 2 4 4 4 3
10 8 7 6 5 5 4 5 3 5 7 3 2 3 3 3 5 8 10 8 8 8 8 8 9 9 11 11 11 11 11 10 10 10 11 11 9 10 9 11 10 7 6 8 8 7 6 8 8 8 8 8 8 8 7 6 6 6 6 6 8 8 8 8 7 6 6 4 4 4 4 5 5 5 3 3 2 1 0 2 1 2 2 3 4 4 4 4 5 4 3 4 3 4 4 4 5
4 2 2 4 5 3 4 3 2 2 2 1 3 2 5 1 4 6 5 5 10 11 13 14 12 11 10 10 11 11 11 11 11 10 11 11 10 10 11 11 11 10 7 8 7 7 7 7 8 8 7 8 8 8 7 6 6 5 5 6 7 8 8 7 8 8 6 6 5 5 5 5 4 4 4 3 2 1 1 2 3 4 4 4 4 3 3 3 4 4 3 3 3 3 3 4 4
4 2 1 1 4 2 2 2 2 1 2 2 1 3 0 4 0 8 5 5 9 9 10 13 14 12 12 12 12 11 10 11 11 11 10 11 12 11 12 12 12 12 12 12 10 7 7 7 8 9 8 7 9 8 8 7 6 5 6 6 6 7 7 7 7 7 5 6 6 5 5 5 5 4 4 3 1 1 3 4 4 3 3 3 3 3 3 3 3 4 3 3 3 3 4 4 4
4 2 2 1 2 2 2 1 1 2 2 0 1 3 3 1 4 8 6 5 6 7 11 12 13 13 12 12 11 11 11 11 11 11 12 12 13 12 12 12 12 11 12 12 11 9 8 7 8 9 9 8 7 8 8 8 7 5 5 5 7 7 6 7 7 7 6 5 6 5 4 5 5 4 4 3 1 1 3 2 3 3 2 3 2 3 3 4 2 4 3 2 3 3 4 3 4
3 1 2 1 1 1 3 1 3 3 5 1 1 1 3 2 2 5 6 5 6 6 8 13 14 13 11 10 10 11 10 10 10 10 12 13 14 15 13 13 12 12 12 11 11 11 9 9 9 9 9 9 9 9 8 9 7 6 5 6 7 6 7 7 7 6 6 6 5 5 5 5 5 4 5 3 1 1 1 3 1 1 2 1 3 3 3 3 4 4 3 3 3 1 2 3 3
1 1 2 1 2 1 3 1 2 5 4 3 2 2 1 1 1 1 4 6 8 7 9 11 11 10 10 10 10 10 9 9 9 9 9 11 12 13 13 11 11 11 12 11 11 10 10 9 9 8 10 9 9 9 8 8 7 6 6 7 7 7 6 6 6 6 6 6 5 6 5 5 5 5 4 3 2 2 2 1 0 1 0 2 2 2 2 3 3 4 2 3 3 3 4 4 3
2 1 3 1 3 1 2 2 1 1 2 5 1 4 3 1 1 2 4 7 7 6 7 8 9 10 11 10 10 10 11 11 11 11 10 11 10 11 12 12 13 11 11 12 12 11 11 10 9 8 8 8 8 8 8 7 7 7 7 6 7 7 8 8 8 8 7 6 6 5 5 5 5 4 3 3 2 2 3 2 1 1 1 1 2 2 2 3 3 3 2 3 3 3 3 3 3
1 2 2 1 4 3 1 1 2 2 5 2 1 5 3 1 2 2 4 7 5 5 5 7 6 6 9 6 6 7 8 8 8 8 8 9 9 10 9 9 10 11 11 10 10 9 9 10 10 9 10 10 8 8 8 7 9 8 7 7 7 7 7 8 8 9 7 7 6 6 5 5 4 4 3 2 3 3 2 1 0 0 0 0 0 1 1 3 3 3 3 2 3 3 3 3 2
1 1 1 1 3 3 1 1 1 3 6 4 2 4 5 4 4 3 4 8 7 6 6 7 7 5 6 5 4 4 3 4 6 6 6 7 8 8 9 8 7 7 7 8 9 9 9 8 9 9 10 9 9 7 7 7 8 7 7 8 8 8 7 8 8 8 7 7 6 6 4 5 4 4 3 3 3 3 2 1 1 0 1 1 0 0 0 2 3 2 2 3 2 2 2 3 2
5 4 2 1 1 2 2 1 1 1 5 3 4 4 1 3 3 2 4 8 8 9 7 6 7 7 7 6 6 6 5 4 4 5 5 5 6 6 7 8 9 10 9 9 10 9 10 10 10 7 7 8 9 8 8 8 7 8 8 7 7 8 8 8 8 9 8 7 6 6 6 5 5 4 4 4 3 3 2 1 1 0 0 1 1 1 1 2 3 1 2 1 2 2 1 2 2
6 6 4 4 2 1 0 0 1 1 2 4 4 4 2 3 4 4 4 5 4 5 7 6 6 6 6 7 7 6 6 5 5 5 5 5 6 6 7 7 8 8 8 8 9 10 10 9 9 9 11 11 10 8 8 8 8 8 10 10 9 8 9 8 8 8 8 7 6 6 5 5 4 4 4 4 4 3 3 2 1 0 0 0 1 1 1 2 2 2 3 1 1 2 2 2 1
1 1 2 2 4 5 1 2 0 1 2 1 4 4 1 1 3 3 4 4 4 5 6 7 6 6 6 6 5 5 5 4 4 4 4 5 5 6 6 6 7 8 8 8 8 9 9 10 10 10 10 10 11 9 9 9 8 9 9 9 9 7 8 8 8 8 8 7 6 6 5 5 4 4 4 4 4 4 3 2 1 0 0 1 0 1 1 1 2 2 3 2 2 2 3 2 2
Wind_Direction
323 330 317 310 299 284 312 228 256 169 232 259 265 203 254 95 93 77 78 270 85 332 333 55 61 53 331 94 110 98 35 48 351 212 150 133 126 124 133 132 127 119 116 118 120 120 121 115 110 109 108 106 106 104 102 98 95 92 91 88 85 82 78 75 72 70 68 68 66 67 65 63 61 60 58 56 54 51 50 50 49 49 48 46 47 47 47 45 43 39 37 36 35 32 30 29 27
318 321 307 293 315 359 252 317 254 231 172 252 245 260 224 119 144 210 144 56 59 189 17 65 73 96 99 114 131 101 39 38 28 91 92 96 108 110 126 129 128 123 121 122 121 120 117 112 111 111 108 106 107 106 102 98 95 94 92 88 84 81 77 73 71 69 69 68 67 66 64 63 61 59 57 55 53 52 49 49 48 48 47 46 47 47 46 44 41 38 35 33 32 31 29 28 26
316 317 324 315 227 281 300 239 236 239 229 214 240 237 263 155 182 140 51 73 124 72 65 65 57 33 65 125 45 4 150 83 71 48 95 116 120 143 137 134 127 118 119 121 122 118 114 112 112 110 108 108 108 105 102 98 96 94 91 88 84 80 77 73 71 69 69 67 67 65 64 62 61 58 56 54 53 52 51 48 47 47 46 45 45 45 44 42 40 37 34 31 30 29 28 26 25
291 263 305 324 339 346 277 268 263 251 235 228 222 236 247 186 127 99 97 78 51 76 80 65 43 14 315 82 111 73 89 95 92 102 110 128 102 141 137 135 125 114 111 116 113 114 112 111 110 109 110 111 108 105 102 98 97 93 90 87 84 80 77 74 72 70 68 67 66 64 62 60 59 57 56 53 51 50 50 48 47 46 45 46 44 43 42 40 39 36 33 30 28 26 25 25 24
271 169 23 330 329 218 232 239 249 240 246 217 233 214 221 164 117 110 104 97 69 70 83 83 94 55 64 70 349 49 85 76 65 41 80 72 121 125 138 118 113 107 109 116 115 109 109 111 109 110 112 112 109 106 102 99 97 93 90 87 84 81 78 76 73 71 68 67 64 63 61 60 58 56 53 53 51 50 49 48 47 46 45 44 43 41 40 38 36 34 31 28 25 24 24 24 23
266 189 96 342 249 355 320 263 227 238 242 261 249 352 281 133 125 117 114 106 68 85 82 106 112 127 41 19 354 94 40 113 123 71 52 104 110 104 96 110 109 111 115 111 108 108 111 112 112 115 114 113 110 107 102 99 96 92 90 88 85 83 79 77 74 70 69 66 64 62 61 59 57 54 53 50 50 49 47 47 46 45 43 43 40 40 38 35 33 31 28 25 24 24 24 24 23
299 217 178 208 258 189 252 239 247 241 234 247 261 69 71 73 112 122 124 87 352 82 102 95 99 113 101 118 84 59 68 340 125 335 358 125 113 120 109 121 112 115 111 106 104 108 112 111 114 116 115 114 110 105 102 98 95 93 91 89 86 83 81 78 74 71 68 65 63 62 61 59 56 53 51 49 48 48 47 46 45 44 42 41 39 37 35 32 29 27 26 24 23 23 25 25 24
246 280 151 201 213 175 229 253 255 243 247 236 253 249 119 116 123 113 133 134 150 138 162 113 145 83 87 187 113 91 42 48 68 112 106 110 128 116 128 121 111 111 107 102 101 104 107 109 113 115 115 111 108 104 101 98 96 94 92 90 87 84 81 78 74 72 68 65 63 62 60 58 56 53 50 48 47 46 46 46 45 43 41 39 37 35 33 30 26 24 24 24 24 24 25 26 25
235 229 288 244 233 195 234 229 241 250 268 270 254 58 112 137 147 144 153 121 131 129 164 145 163 106 126 75 79 100 63 66 81 75 95 117 118 124 123 114 111 105 102 104 105 104 104 107 109 111 111 108 105 102 101 99 97 95 93 91 88 85 82 78 75 72 69 66 64 62 60 58 56 52 50 47 46 46 45 45 43 42 39 38 35 33 30 27 24 23 24 24 25 26 26 27 26
236 202 189 240 238 232 219 229 228 231 243 252 265 130 139 151 147 152 157 130 146 141 142 155 174 112 109 97 117 118 69 342 130 101 112 127 133 124 109 108 113 113 112 113 110 103 101 102 100 104 106 105 103 102 101 99 97 96 94 91 88 86 82 79 75 72 69 66 65 63 61 58 55 51 49 47 45 44 45 44 43 40 38 35 32 29 27 25 23 23 24 24 26 28 28 28 27
234 184 266 225 223 237 226 219 223 231 235 245 255 236 154 149 148 151 160 127 138 141 148 115 84 113 102 114 71 37 91 136 115 121 139 127 131 118 114 117 118 117 112 108 107 102 99 99 100 101 103 103 101 100 99 98 96 95 93 91 89 86 82 79 75 71 69 67 64 63 60 58 55 52 49 47 45 43 43 43 41 39 35 32 29 26 25 25 24 24 24 24 25 29 30 29 27
247 208 180 234 233 223 230 239 219 221 240 240 243 237 121 173 145 150 145 137 150 144 149 154 134 116 87 121 127 138 111 74 85 124 138 142 126 123 117 111 104 102 110 115 109 103 103 99 98 97 92 92 94 96 98 98 97 95 93 92 90 86 83 79 76 73 70 68 65 62 60 57 55 52 49 47 45 44 41 40 38 36 33 29 26 25 25 26 26 25 24 23 25 27 29 27 24
242 214 213 227 229 236 237 238 229 221 218 227 235 181 144 168 160 157 150 141 153 147 148 145 123 109 126 137 97 139 134 137 90 77 104 123 119 115 105 104 106 111 111 108 110 115 111 106 96 93 89 87 86 90 93 94 95 94 93 92 90 87 84 80 76 73 71 68 66 63 59 56 54 51 49 47 45 44 41 36 33 32 30 28 26 25 27 28 26 25 24 22 22 22 20 22 22
231 234 224 235 229 240 230 241 236 227 223 202 221 156 168 164 160 162 142 151 154 150 98 126 144 103 91 95 148 176 150 153 117 89 108 110 117 113 111 113 111 109 105 111 114 115 114 109 108 101 94 91 87 83 85 89 92 93 93 92 89 87 83 78 74 73 71 68 67 65 60 56 54 53 50 47 45 42 39 33 28 25 23 23 24 25 24 25 26 23 19 18 18 17 17 19 22
231 230 254 250 233 227 227 231 221 231 239 205 184 158 155 162 167 156 156 136 42 73 80 37 89 135 188 160 179 186 156 153 138 123 101 107 111 111 113 114 110 109 111 110 111 110 112 120 116 112 108 101 94 89 82 84 90 92 92 90 88 86 83 79 76 71 67 67 65 61 55 51 49 51 51 49 45 39 34 26 22 21 21 16 13 18 21 19 21 20 17 15 17 18 19 21 20
227 243 238 235 235 228 217 227 222 238 227 212 150 155 140 150 166 141 34 100 173 120 83 61 23 355 140 175 145 136 143 137 133 121 111 106 106 108 110 111 114 111 109 112 110 115 128 127 121 122 113 100 97 97 91 86 88 91 90 89 88 88 88 88 88 84 78 60 57 54 55 52 43 37 46 47 45 41 31 22 17 13 15 14 6 10 16 16 16 17 16 15 17 20 19 19 16
233 253 235 225 234 221 209 224 210 223 227 224 143 152 144 128 22 66 123 111 122 80 68 40 42 355 136 113 126 121 129 128 129 126 115 110 111 107 105 103 107 106 105 109 118 109 88 85 92 101 97 100 97 95 95 96 92 89 87 91 91 90 91 106 119 115 88 47 44 59 64 67 66 52 28 27 37 35 29 14 7 5 5 8 6 11 13 13 16 16 15 16 20 21 22 20 15
197 220 227 233 227 222 200 228 219 225 218 189 146 155 143 120 112 110 97 90 91 87 81 80 64 63 76 103 101 116 125 135 143 134 131 124 126 122 114 110 109 102 82 72 62 73 74 72 73 79 93 97 104 105 105 105 111 109 109 106 103 99 92 72 55 48 35 34 46 47 43 55 85 65 36 30 346 22 6 359 11 11 7 6 7 11 12 11 15 13 15 15 22 22 17 20 9
214 225 227 236 216 224 174 232 246 218 212 127 171 172 150 152 133 168 113 129 122 105 104 94 88 81 85 91 112 119 133 141 148 140 141 139 138 128 128 123 115 111 100 75 65 77 91 94 86 91 97 107 111 114 123 128 119 101 93 89 82 74 64 58 56 47 35 32 45 53 37 25 42 44 36 9 10 30 350 13 15 12 11 9 11 13 10 10 13 11 12 16 16 20 17 7 17
222 225 227 237 196 225 218 219 243 256 135 171 166 158 135 143 128 163 143 147 145 151 143 125 124 129 123 121 119 127 137 148 151 144 143 146 141 130 132 128 127 126 116 107 107 93 95 100 97 99 106 110 108 115 111 110 117 126 135 121 118 119 99 82 65 57 39 32 57 69 49 44 58 38 20 20 19 16 4 6 8 8 3 6 9 15 359 360 9 10 8 11 7 14 21 359 25
194 225 230 236 183 240 221 217 233 270 157 167 171 145 115 153 126 149 135 129 173 165 167 162 155 148 139 132 128 134 143 150 150 143 142 140 127 120 122 131 137 126 116 117 104 103 100 108 111 111 117 120 127 134 134 137 137 133 137 129 123 112 100 94 88 69 41 34 24 46 57 49 51 46 34 17 20 17 7 358 360 3 359 4 356 12 357 342 357 3 358 359 359 0 9 5 21
252 228 245 289 265 226 232 231 47 287 159 151 93 138 132 98 135 144 150 157 183 180 166 128 135 140 138 135 137 139 149 153 151 148 149 150 136 129 121 109 103 112 121 111 116 110 101 100 118 126 107 133 140 125 110 117 110 99 90 91 84 69 72 68 63 49 39 23 22 20 44 42 36 29 26 29 19 23 8 354 358 5 5 7 357 5 357 348 357 6 4 353 351 353 356 17 354
234 246 246 238 242 264 232 256 39 43 131 160 154 151 124 139 147 177 111 52 330 117 116 120 132 140 144 135 136 143 155 155 154 146 151 152 135 124 127 126 130 126 119 117 118 111 109 104 87 86 82 158 109 101 122 119 105 103 100 110 106 95 80 72 65 71 60 36 26 13 29 36 37 28 23 20 22 15 6 352 359 7 10 9 0 0 359 350 358 3 6 350 347 350 349 16 353
242 244 239 246 231 235 258 320 51 82 99 221 164 137 144 146 140 111 84 76 25 102 111 118 126 126 132 137 147 147 153 155 154 131 110 115 123 126 127 124 114 101 92 113 110 113 125 129 132 145 167 151 126 146 110 90 81 85 84 67 68 83 80 79 84 79 68 53 30 18 26 25 30 32 13 22 13 8 7 359 4 5 15 7 4 2 1 348 352 358 1 348 348 347 345 1 355
237 240 243 262 241 230 229 127 252 118 229 150 246 142 155 160 147 117 106 96 94 103 115 124 126 127 131 139 149 150 148 145 131 117 96 81 97 94 91 93 116 120 122 116 124 121 123 151 181 156 147 145 147 119 101 100 114 108 87 80 71 70 73 77 77 65 65 59 39 30 18 35 28 22 16 8 14 8 1 8 12 5 14 3 7 359 356 348 346 353 356 349 344 342 337 343 358
245 252 232 245 263 249 154 135 31 270 104 20 219 153 146 126 97 73 121 107 106 113 119 132 139 141 142 143 151 151 152 138 125 132 120 108 118 110 97 107 105 100 111 127 133 139 164 182 155 146 150 142 128 100 110 121 116 100 95 95 84 74 74 71 65 61 57 53 33 28 26 40 44 31 15 356 23 7 3 4 14 5 15 358 6 1 344 348 343 350 351 347 336 334 331 334 357
242 231 243 246 231 215 207 176 184 223 147 153 221 144 109 127 114 148 134 125 123 120 126 140 141 142 146 143 145 144 134 139 142 121 106 126 142 126 133 136 129 147 157 149 143 132 156 160 141 138 121 109 91 110 121 114 98 97 105 92 87 99 84 74 72 70 61 50 34 27 28 24 35 45 18 351 5 21 14 5 9 8 9 352 0 360 341 343 350 353 352 346 331 329 332 339 348
289 299 280 227 228 209 201 200 180 181 192 144 261 119 118 101 355 138 148 145 142 135 138 139 139 141 143 138 133 126 121 117 116 139 144 155 162 150 152 151 145 137 136 123 124 166 152 141 131 111 110 108 120 107 110 99 97 98 90 88 90 85 83 80 77 76 74 55 40 36 23 24 27 18 18 1 355 24 28 16 6 15 358 342 357 4 343 347 2 345 350 347 329 328 343 343 340
292 283 267 279 188 232 198 206 201 182 158 134 124 82 63 135 62 131 145 143 142 139 140 142 141 140 134 133 128 132 136 135 137 144 155 137 132 165 143 116 128 137 142 144 143 149 150 124 106 110 116 134 116 118 99 100 94 86 87 94 103 91 80 79 84 91 84 71 52 43 37 29 26 20 355 9 1 14 31 28 11 9 349 338 0 359 350 352 359 346 341 351 334 339 347 344 341
301 257 261 287 252 234 213 181 225 198 151 157 152 183 224 137 118 131 136 148 141 136 140 138 144 148 149 143 134 121 122 129 143 145 141 128 116 109 102 135 159 131 149 133 138 131 102 76 73 89 132 125 124 111 108 109 106 102 104 115 106 91 89 91 91 93 99 84 56 45 34 31 27 14 5 355 14 9 24 31 17 352 344 344 1 352 0 359 354 345 331 360 342 348 349 344 345
247 234 130 220 218 227 199 191 173 194 166 169 184 189 153 125 142 131 142 150 151 147 148 143 145 145 146 146 133 131 127 134 134 135 126 127 144 145 110 116 115 191 130 129 131 132 115 119 135 157 154 117 112 117 111 100 102 113 121 102 85 89 92 98 97 87 82 82 74 52 47 36 27 13 360 4 19 20 14 22 15 347 345 353 357 346 11 0 349 339 330 3 344 345 345 341 341
265 199 215 230 212 201 183 178 178 161 197 197 167 219 157 156 151 146 143 153 157 147 147 145 146 144 148 146 132 128 126 125 126 121 129 129 117 120 134 144 159 137 132 137 137 118 106 109 153 149 122 110 107 103 101 111 113 108 100 94 85 88 90 87 82 83 87 85 75 59 46 42 32 12 357 0 35 22 19 12 13 355 353 357 356 352 8 5 345 337 334 0 352 341 346 346 344
221 224 207 205 205 213 175 213 179 182 158 198 204 145 109 146 156 153 149 152 165 151 145 151 149 147 148 145 140 135 132 125 123 130 137 146 136 142 166 156 141 152 156 155 134 127 137 145 161 147 134 125 111 105 104 101 99 103 102 102 98 91 90 87 83 80 75 73 72 64 55 52 33 11 4 355 19 37 35 13 15 4 357 359 6 359 355 1 347 343 340 348 348 331 349 345 340
236 219 236 209 195 197 210 86 326 158 164 179 193 101 131 137 156 156 162 164 162 157 147 149 150 150 148 142 142 145 145 144 145 147 149 156 153 134 158 168 141 163 162 123 120 126 131 158 157 148 142 128 117 108 102 101 100 96 103 98 88 91 92 91 86 82 78 78 73 58 62 63 41 16 2 359 359 10 58 27 23 6 359 7 12 359 343 350 347 352 346 338 334 339 9 356 338
223 204 223 283 195 184 181 189 203 151 174 154 157 103 116 138 148 159 162 173 165 159 156 156 151 151 148 146 150 149 148 150 149 146 150 142 127 147 171 146 143 154 136 138 145 150 145 161 157 148 143 123 116 116 116 115 108 101 93 98 100 89 77 81 82 80 86 81 72 58 49 53 31 21 359 354 2 356 40 32 32 11 355 3 1 351 340 348 356 354 352 331 323 342 45 0 335
279 224 214 228 190 182 186 160 157 160 163 162 168 161 139 146 151 156 164 168 163 151 144 145 146 139 145 149 149 151 147 142 140 132 133 137 148 164 161 162 165 153 159 162 157 148 149 162 147 146 134 125 120 121 124 117 114 125 121 108 101 96 93 83 83 91 83 73 66 61 59 48 22 27 4 8 2 7 24 39 29 24 351 350 352 352 358 360 1 354 348 330 330 331 38 3 335
228 353 247 214 187 168 152 136 161 184 144 176 174 132 143 158 161 163 164 163 166 153 157 155 154 151 155 150 153 150 152 144 132 126 131 146 154 158 164 168 157 149 162 161 155 154 155 156 149 153 141 129 132 141 150 148 147 140 131 132 119 121 118 117 96 86 82 80 77 74 69 50 43 25 16 13 14 11 14 22 32 22 356 341 339 11 23 4 0 360 338 327 344 336 12 1 345
264 347 280 209 156 145 100 143 163 190 155 166 162 127 149 159 156 158 159 167 171 162 159 162 161 160 160 156 148 150 134 116 127 124 134 118 148 161 159 162 160 157 168 163 159 159 158 153 155 154 145 140 149 160 165 162 158 163 153 137 118 117 138 133 113 94 95 82 69 67 74 71 66 39 30 27 19 23 10 5 26 2 357 337 339 7 36 16 2 3 347 339 353 337 16 19 2
206 194 256 209 133 107 348 100 125 104 108 127 136 136 146 158 155 156 168 175 170 173 171 164 162 161 163 163 155 148 135 140 143 144 151 147 144 165 166 166 161 156 174 167 163 155 160 157 158 156 154 150 164 164 158 164 143 134 117 113 123 118 69 97 104 107 100 91 86 81 68 57 55 44 21 36 38 21 10 4 2 352 344 352 354 5 19 15 18 359 357 352 348 340 354 33 37
230 197 230 204 154 139 120 324 99 64 83 146 139 116 119 120 133 154 166 172 165 148 149 158 162 162 163 167 164 154 147 148 153 156 159 152 156 156 169 167 169 171 175 162 160 165 164 161 162 156 155 159 160 151 124 89 87 77 78 93 93 99 123 100 95 97 105 104 92 86 70 59 63 60 34 24 44 31 13 5 347 340 354 4 5 11 13 7 21 2 359 349 1 345 347 339 49
234 208 207 173 163 152 130 191 106 73 52 95 105 89 65 169 151 161 174 154 147 143 135 142 148 149 149 148 161 162 156 154 148 155 154 150 162 169 176 178 167 165 170 163 165 176 171 165 165 156 154 160 151 119 111 113 96 83 87 82 91 94 82 98 109 125 137 127 108 77 67 67 56 50 54 33 24 41 19 5 339 342 9 10 9 14 24 359 20 14 352 352 355 0 340 329 5
153 16 187 158 153 114 120 118 97 60 33 145 143 106 204 199 172 164 156 161 171 161 158 160 155 157 154 162 166 158 153 163 157 161 166 169 168 160 167 169 166 176 177 173 167 180 162 165 159 149 148 146 135 122 127 120 124 130 133 131 135 119 126 146 162 158 151 141 120 117 82 76 73 52 28 48 27 33 34 359 338 5 14 13 359 27 26 11 5 10 352 352 337 347 340 357 1
141 50 38 136 132 130 133 139 123 133 154 175 34 136 147 241 202 168 159 165 162 164 174 168 162 165 164 164 167 164 155 155 152 157 159 159 168 166 173 173 177 170 179 173 165 173 166 161 147 140 143 136 128 128 132 130 133 149 158 162 154 149 148 188 152 137 126 118 124 113 94 67 72 72 40 20 24 28 41 10 357 14 15 8 7 35 26 14 360 357 348 356 340 341 7 26 11
86 112 68 96 131 137 148 144 100 92 72 69 58 110 127 171 218 159 167 164 162 169 178 173 176 169 166 163 167 166 162 161 156 160 169 175 173 171 179 174 174 174 170 174 180 174 162 150 138 135 133 132 135 134 143 147 147 160 160 157 144 162 145 125 110 110 110 119 116 127 114 93 67 81 77 28 33 15 32 22 16 20 12 358 27 32 23 2 360 349 352 360 355 341 18 30 3
118 122 108 88 101 98 94 84 101 130 128 159 230 252 118 153 137 139 169 172 181 180 180 173 173 174 175 169 168 168 164 159 160 163 169 173 178 179 176 175 176 171 168 178 182 161 144 135 135 133 136 133 136 141 149 155 152 162 160 147 142 107 111 110 107 108 114 118 120 128 119 119 109 88 95 87 42 26 20 17 34 18 14 6 24 16 0 349 346 349 357 350 5 347 6 20 26
87 103 86 85 79 76 63 103 104 136 148 180 191 167 216 126 168 157 178 209 194 183 181 178 175 171 172 171 168 165 162 159 161 166 167 172 174 178 175 160 183 187 175 172 168 160 146 141 145 144 143 134 141 147 155 161 154 157 156 150 126 119 114 114 115 119 123 122 130 139 140 142 146 144 125 85 77 66 36 34 29 10 13 10 17 1 13 4 346 354 4 336 33 360 355 14 349
118 98 94 91 76 81 66 55 72 96 201 185 151 175 234 159 202 186 174 206 182 160 168 173 171 168 168 169 166 167 168 164 165 166 169 171 167 167 168 178 186 187 168 171 173 172 153 149 153 151 149 140 145 153 158 167 154 162 156 146 136 133 133 131 127 128 131 133 147 164 154 138 144 153 147 130 93 8 113 81 39 325 44 24 23 11 17 1 335 335 15 1 25 7 343 11 350
112 104 115 146 71 60 67 62 31 162 173 138 165 214 229 152 178 194 207 134 180 174 174 173 170 170 169 168 170 170 166 163 164 166 166 159 160 165 173 183 183 189 173 181 182 169 157 153 156 151 148 144 151 155 158 158 153 157 144 143 137 141 142 142 142 146 155 158 160 157 136 130 138 143 132 92 54 340 347 59 27 26 38 40 21 10 1 354 341 327 21 1 12 342 3 26 346
48 85 14 277 103 134 111 142 161 284 126 147 209 218 291 10 16 151 178 167 167 174 171 171 168 168 168 171 170 168 164 162 166 167 163 165 170 169 177 178 178 187 188 189 181 165 155 158 161 156 162 145 154 157 155 153 155 159 148 146 135 138 139 140 139 142 160 155 153 143 148 156 157 145 125 111 99 349 38 40 36 39 21 7 18 11 350 334 341 332 351 22 357 0 23 8 334
13 27 343 359 136 192 106 132 55 101 40 2 222 252 62 359 78 135 152 133 138 155 155 156 164 168 170 168 167 167 168 170 167 166 168 172 175 177 179 176 181 186 190 185 174 167 166 166 168 164 166 163 157 159 154 155 162 159 147 138 130 136 136 134 138 143 153 146 139 146 158 146 135 129 110 109 130 65 58 64 49 47 39 12 13 17 350 316 8 339 320 31 5 32 14 344 332
66 219 26 78 4 1 136 185 156 120 123 182 256 9 163 165 156 352 85 77 82 71 122 154 161 166 166 162 163 158 166 171 167 172 172 175 178 181 183 183 177 185 185 182 178 176 168 170 172 170 160 157 158 163 158 157 157 152 138 124 130 132 134 131 136 136 129 119 117 108 104 111 119 116 118 128 96 90 90 76 66 57 17 0 25 18 349 343 3 330 341 32 355 60 353 329 317
164 134 152 68 11 189 34 332 76 122 130 95 24 37 345 163 223 359 56 87 77 74 89 121 142 152 152 155 156 163 169 172 172 178 177 175 178 181 187 180 183 192 184 183 182 174 170 170 170 170 160 159 160 159 162 157 149 139 127 129 132 131 123 121 117 108 104 113 115 113 104 105 107 108 110 121 127 90 63 41 89 125 71 26 23 7 0 346 331 326 12 3 358 18 359 339 325
345 37 25 352 182 46 24 7 44 10 133 47 241 96 26 134 126 134 124 83 84 96 95 103 121 139 153 162 165 165 171 175 176 181 184 177 177 182 186 179 187 183 182 185 183 175 169 158 160 153 156 157 162 163 157 150 136 131 134 131 131 129 129 133 128 118 115 112 110 106 108 111 110 116 130 125 133 87 82 37 7 69 59 49 26 345 0 322 330 322 13 340 50 8 345 335 339
281 40 298 139 78 101 60 91 305 352 78 87 94 113 157 235 83 187 135 104 115 105 116 113 114 126 137 144 144 151 164 170 169 172 175 178 179 177 175 176 180 180 176 175 173 167 167 164 167 156 157 162 164 157 154 144 138 137 137 131 129 130 131 129 124 123 121 114 106 106 114 111 119 133 131 146 119 118 126 194 63 310 120 85 25 333 353 320 349 329 354 355 89 32 344 342 349
200 252 233 45 341 10 244 226 46 73 86 111 88 106 61 45 123 177 149 138 144 139 127 125 134 148 140 146 144 132 116 123 150 163 165 170 172 172 172 170 164 165 163 165 163 163 162 165 172 163 164 163 157 155 151 141 141 142 140 139 136 131 129 126 123 123 122 120 124 133 129 126 127 137 140 144 146 148 167 160 193 88 60 356 335 296 298 334 332 332 352 23 24 24 338 322 334
227 277 323 180 127 196 319 283 221 270 128 129 140 69 56 328 7 3 127 139 143 135 141 150 154 155 152 152 155 160 165 171 162 167 171 166 162 164 167 164 163 166 167 169 167 164 168 168 166 158 151 152 156 159 149 144 141 137 135 130 127 130 132 132 136 132 128 132 137 130 128 138 161 161 153 162 152 143 135 158 118 159 42 18 7 333 4 315 318 337 351 30 332 320 323 308 317
346 17 12 7 342 166 154 32 73 95 112 85 102 60 8 317 331 24 44 44 79 134 144 132 135 130 129 141 147 156 163 172 178 176 177 173 167 169 168 165 160 161 164 164 165 167 167 163 165 161 161 162 163 157 150 145 140 142 140 139 138 138 136 135 135 131 127 134 130 130 143 156 153 149 145 151 140 149 163 160 165 68 113 71 324 303 306 324 325 350 324 301 276 287 284 280 270
33 40 34 335 325 359 29 25 14 39 56 78 94 113 59 292 11 15 58 26 55 18 92 102 112 107 105 114 131 147 153 166 171 181 177 171 167 165 157 154 153 154 158 155 153 153 161 167 168 162 160 166 163 161 156 145 143 144 143 140 138 136 136 139 139 130 131 135 139 144 146 145 156 160 147 164 151 157 158 156 173 142 137 225 263 273 281 345 332 334 330 308 294 301 308 304 296